Location: Fort Worth, Tx
(32.7431°N, 97.3695°W)
Time: 04:38:21
(UTC-05:00)

Vanguard 2 - All Passes

Search period start: 31 January 2023 00:00
Search period end: 10 February 2023 00:00
Orbit: 553 x 2930 km, 32.9° (Epoch: 30 January)

Date Brightness Start Highest point End Pass type
(mag) Time Alt. Az. Time Alt. Az. Time Alt. Az.
31 Jan - 01:02:58 10° WSW 01:19:21 86° SSE 01:36:54 10° E visible
31 Jan - 03:15:00 10° W 03:33:07 88° S 03:48:16 10° E visible
31 Jan - 05:28:24 10° WNW 05:45:27 62° SSW 05:57:21 10° SE visible
31 Jan - 07:44:06 10° W 07:54:41 24° SW 08:02:31 10° S visible
31 Jan - 21:04:05 10° S 21:13:37 29° SE 21:26:24 10° E visible
31 Jan - 23:10:08 10° SW 23:23:41 66° SSE 23:41:22 10° ENE visible
01 Feb - 01:20:03 10° W 01:36:38 89° S 01:54:06 10° E visible
01 Feb - 03:32:14 10° W 03:50:22 84° SSW 04:05:17 10° ESE visible
01 Feb - 05:45:47 10° WNW 06:02:11 52° SSW 06:13:46 10° SE visible
01 Feb - 08:03:05 10° W 08:10:54 17° SW 08:17:11 10° SSW visible
01 Feb - 21:19:44 10° SSW 21:29:59 38° SE 21:44:21 10° E visible
01 Feb - 23:26:50 10° WSW 23:40:39 74° SSE 23:58:38 10° ENE visible
02 Feb - 01:37:12 10° W 01:53:57 89° N 02:11:19 10° E visible
02 Feb - 03:49:28 10° W 04:07:30 78° SSW 04:22:12 10° ESE visible
02 Feb - 06:03:17 10° W 06:18:45 43° SW 06:29:57 10° SSE visible
02 Feb - 08:24:59 10° WSW 08:27:05 10° SW 08:29:03 10° SW daylight
02 Feb - 19:34:09 10° SSE 19:38:15 13° SE 19:42:59 10° ESE visible
02 Feb - 21:35:45 10° SSW 21:46:27 47° SE 22:01:58 10° ENE visible
02 Feb - 23:43:40 10° WSW 23:57:44 82° SSE 00:15:52 10° E visible
03 Feb - 01:54:22 10° W 02:11:17 90° N 02:28:29 10° E visible
03 Feb - 04:06:41 10° WNW 04:24:32 70° SSW 04:38:58 10° SE visible
03 Feb - 06:21:02 10° W 06:35:11 34° SW 06:45:47 10° SSE visible
03 Feb - 19:47:52 10° S 19:54:25 19° SE 20:02:56 10° E visible
03 Feb - 21:52:04 10° SW 22:03:05 57° SSE 22:19:23 10° ENE visible
04 Feb - 00:00:37 10° WSW 00:14:55 87° SSE 00:33:08 10° E visible
04 Feb - 02:11:32 10° W 02:28:35 87° S 02:45:37 10° ESE visible
04 Feb - 04:23:56 10° WNW 04:41:25 61° SSW 04:55:32 10° SE visible
04 Feb - 06:39:12 10° W 06:51:31 26° SW 07:01:10 10° S visible
04 Feb - 20:02:57 10° S 20:10:38 27° SE 20:21:27 10° E visible
04 Feb - 22:08:34 10° SW 22:19:51 67° SSE 22:36:43 10° ENE visible
05 Feb - 00:17:38 10° W 00:32:09 90° S 00:50:24 10° E visible
05 Feb - 02:28:40 10° W 02:45:48 83° SSW 03:02:40 10° ESE visible
05 Feb - 04:41:16 10° WNW 04:58:11 52° SSW 05:11:55 10° SE visible
05 Feb - 06:58:09 10° W 07:07:47 19° SW 07:15:49 10° S visible
05 Feb - 20:18:39 10° SSW 20:26:55 36° SE 20:39:22 10° E visible
05 Feb - 22:25:15 10° WSW 22:36:46 76° SSE 22:54:00 10° ENE visible
06 Feb - 00:34:42 10° W 00:49:27 89° N 01:07:40 10° E visible
06 Feb - 02:45:48 10° WNW 03:02:57 76° SSW 03:19:35 10° ESE visible
06 Feb - 04:58:44 10° W 05:14:47 43° SW 05:28:00 10° SSE visible
06 Feb - 07:19:07 10° WSW 07:24:03 12° SW 07:28:34 10° SSW visible
06 Feb - 18:35:33 10° SE 18:35:54 10° SE 18:36:14 10° SE daylight
06 Feb - 20:34:42 10° SW 20:43:22 46° SE 20:56:57 10° ENE visible
06 Feb - 22:42:04 10° WSW 22:53:48 83° SSE 23:11:16 10° E visible
07 Feb - 00:51:47 10° W 01:06:44 90° S 01:24:54 10° E visible
07 Feb - 03:02:57 10° WNW 03:19:58 68° SSW 03:36:20 10° SE visible
07 Feb - 05:16:28 10° W 05:31:17 34° SW 05:43:44 10° SSE visible
07 Feb - 18:47:18 10° SSE 18:52:02 16° SE 18:58:07 10° E daylight
07 Feb - 20:51:02 10° SW 20:59:57 56° SSE 21:14:21 10° ENE visible
07 Feb - 22:58:58 10° WSW 23:10:55 88° S 23:28:34 10° E visible
08 Feb - 01:08:50 10° W 01:23:59 86° S 01:42:04 10° ESE visible
08 Feb - 03:20:07 10° WNW 03:36:52 60° SSW 03:52:51 10° SE visible
08 Feb - 05:34:38 10° W 05:47:43 26° SW 05:59:00 10° S visible
08 Feb - 19:02:18 10° S 19:08:13 24° SE 19:16:39 10° E daylight
08 Feb - 21:07:34 10° SW 21:16:41 67° SSE 21:31:40 10° ENE visible
08 Feb - 23:15:56 10° W 23:28:07 90° N 23:45:53 10° E visible
09 Feb - 01:25:53 10° W 01:41:09 81° SSW 01:59:07 10° ESE visible
09 Feb - 03:37:24 10° W 03:53:40 51° SSW 04:09:09 10° SE visible
09 Feb - 05:53:36 10° W 06:04:07 19° SW 06:13:29 10° S visible
09 Feb - 19:17:59 10° SSW 19:24:31 33° SE 19:34:31 10° E visible
09 Feb - 21:24:14 10° WSW 21:33:33 76° SSE 21:48:57 10° E visible
